Regional Weather Roundup
Issued by NWS

Home | Current Version | Previous Version | Graphics & Text | Print | Product List | Glossary On
Versions: 1 2 3 4 5 6 7 8 9 10 11 12 13 14 15 16 17 18 19 20 21 22 23 24 25 26 27 28 29 30 31 32 33 34 35 36 37 38 39 40 41 42 43 44 45 46 47 48 49 50
000
ASUS43 KMPX 212310
RWRMN
WEATHER ROUNDUP FOR MINNESOTA
NATIONAL WEATHER SERVICE TWIN CITIES/CHANHASSEN MN
600 PM CDT SUN MAY 21 2017


NOTE: "FAIR" INDICATES FEW OR NO CLOUDS BELOW 12,000 FEET WITH NO
SIGNIFICANT WEATHER AND/OR OBSTRUCTIONS TO VISIBILITY. N/A MEANS
CURRENT SKY AND/OR WEATHER CONDITIONS ARE NOT AVAILABLE.

MNZ060>063-068>070-220000-
   Twin Cities Metro

CITY           SKY/WX    TMP DP  RH WIND       PRES   REMARKS
TWIN CITIES    CLOUDY    48  41  76 W12       29.88R
ST PAUL        CLOUDY    48  43  82 W18       29.88R
CRYSTAL        CLOUDY    47  39  74 W12       29.86R
BLAINE         DRIZZLE   48  46  93 W13G20    29.87R FOG
LAKEVILLE      CLOUDY    45  43  93 W13G21    29.89S
EDEN PRAIRIE   CLOUDY    48  40  73 W10G22    29.88R
SOUTH ST PAUL  CLOUDY    47  44  86 W10       29.88R
LAKE ELMO      CLOUDY    46  45  93 W14       29.87R FOG
$$
MNZ001>005-007-008-013>017-022>024-027-028-220000-
   Northwest Minnesota

CITY           SKY/WX    TMP DP  RH WIND       PRES   REMARKS
BEMIDJI        CLOUDY    45  42  90 NW10      29.83S
HALLOCK        DRIZZLE   48  46  93 N10       29.86S
ROSEAU         CLOUDY    50  43  76 NW10      29.83S
WARROAD        CLOUDY    48  45  87 NW9       29.82F
THIEF RVR FALL CLOUDY    50  41  71 NW15      29.85F
CROOKSTON      CLOUDY    52  45  76 NW15G21   29.88S
FOSSTON        CLOUDY    46  43  87 NW10G20   29.85F
DETROIT LAKES  LGT RAIN  46  41  81 NW13G21   29.88F
MOORHEAD       CLOUDY    50  45  81 NW12      29.91S
PARK RAPIDS    LGT RAIN  47  39  74 NW12      29.84S
MAHNOMEN       CLOUDY    46  41  82 NW10      29.86S
$$
MNZ006-009>011-018-025>026-220000-
   North Central Minnesota

CITY           SKY/WX    TMP DP  RH WIND       PRES   REMARKS
BAUDETTE       CLOUDY    50  43  77 N10       29.80F
FLAG ISLAND    CLOUDY    48  43  81 N8        29.80S
INTL FALLS     CLOUDY    49  43  80 NW7       29.78S
WASKISH        CLOUDY    46  45  93 W8        29.81S
BIG FORK       DRIZZLE   46  45  93 W5        29.80S
LONGVILLE      DRIZZLE   45  43  93 W8        29.82F
GRAND RAPIDS   CLOUDY    46  43  89 NW12      29.81S
CRANE LAKE     LGT RAIN  46  45  93 N3        29.78S
ORR            LGT RAIN  46  43  87 NW5       29.75S
COOK           RAIN      46  45  93 NW5       29.77S
WALKER         CLOUDY    44  41  89 NW10      29.83S
$$
MNZ012-019>021-037-220000-
   Northeast Minnesota

CITY           SKY/WX    TMP DP  RH WIND       PRES   REMARKS
DULUTH         CLOUDY    47  46  97 SW8       29.75F FOG
ELY            LGT RAIN  46  45  93 W3        29.75S
HIBBING        LGT RAIN  46  45  96 NW9       29.77S FOG
EVELETH        CLOUDY    48  43  81 W6        29.77S
DULUTH HARBOR  CLOUDY    45  43  93 CALM      29.79S
TWO HARBORS    CLOUDY    46  43  87 S6        29.75R FOG
SILVER BAY     CLOUDY    46  45  93 S3        29.74R
GRAND MARAIS     N/A     42  41  96 W3        29.75R
G MARAIS ARPRT CLOUDY    43  39  87 W3        29.73R
$$
MNZ029>031-032-039>041-046>048-054>057-064-220000-
   West Central Minnesota

CITY           SKY/WX    TMP DP  RH WIND       PRES   REMARKS
FERGUS FALLS   CLOUDY    48  43  81 NW14      29.90S
WHEATON        PTSUNNY   50  41  71 N13       29.94S
MORRIS         PTSUNNY   50  43  76 NW16G22   29.91S
ALEXANDRIA     CLOUDY    46  40  79 NW17      29.90S
ELBOW LAKE     DRIZZLE   46  43  86 NW10      29.91S
WADENA         CLOUDY    45  39  81 NW10      29.87S
GLENWOOD       CLOUDY    46  41  81 W18       29.90S
APPLETON       MOSUNNY   52  41  66 NW13G18   29.93F
BENSON         MOSUNNY   52  41  66 N18       29.94S
ORTONVILLE     PTSUNNY   52  39  62 NW12      29.93F
MADISON        PTSUNNY   54  45  71 NW17      29.95S
WILLMAR        PTSUNNY   48  41  76 NW17      29.93S
$$
MNZ033>034-036-042>043-049>051-058-059-220000-
   Central Minnesota

CITY           SKY/WX    TMP DP  RH WIND       PRES   REMARKS
ST CLOUD       CLOUDY    46  42  86 W13       29.87R
SAUK CENTRE    CLOUDY    45  39  81 NW13      29.89S
PAYNESVILLE    CLOUDY    45  44  95 NW13G21   29.90S
AITKIN         CLOUDY    45  43  93 W6        29.81S FOG
PINE RIVER     DRIZZLE   45  43  93 W7        29.87S
BRAINERD       CLOUDY    46  43  89 NW7       29.84S
STAPLES        CLOUDY    45  41  87 NW13      29.86S
LONG PRAIRIE   CLOUDY    43  37  81 W13       29.88S
LITTLE FALLS   CLOUDY    45  37  76 NW13      29.86S
LITCHFIELD     CLOUDY    46  43  87 W17       29.90S
BUFFALO        CLOUDY    46  40  77 W10       29.89S
MAPLE LAKE     CLOUDY    46  42  84 W10G18    29.90R
HUTCHINSON     CLOUDY    47  42  84 W16       29.92S
$$
MNZ037-044-045-052-053-220000-
   East Central Minnesota

CITY           SKY/WX    TMP DP  RH WIND       PRES   REMARKS
PRINCETON      CLOUDY    48  43  81 W7        29.86R
MORA           CLOUDY    45  41  87 W8        29.85R
CAMBRIDGE      CLOUDY    46  45  93 W8        29.83S
RUSH CITY      CLOUDY    46  45  93 W8        29.83S FOG
MOOSE LAKE     CLOUDY    48  45  87 NW7G16    29.78R FOG
HINCKLEY       CLOUDY    46  46 100 W6        29.81S
CLOQUET        CLOUDY    48  45  87 W6        29.77S
MCGREGOR       CLOUDY    46  43  87 NW12      29.81R
$$
MNZ071>073-080-081-089-090-097-098-220000-
   Southwest Minnesota

CITY           SKY/WX    TMP DP  RH WIND       PRES   REMARKS
MONTEVIDEO     PTSUNNY   52  45  76 N14G21    29.94S
CANBY          CLOUDY    53  42  67 W10       29.97S
MARSHALL       CLOUDY    51  41  68 NW16      29.95F
REDWOOD FALLS  CLOUDY    49  39  68 NW12      29.94S
OLIVIA         CLOUDY    50  41  71 NW15G23   29.92F
PIPESTONE      MOSUNNY   55  36  47 NW14G24   29.96F
WINDOM         SUNNY     52  43  71 NW13      29.96S
WORTHINGTON    MOSUNNY   53  41  63 NW23G29   29.98S
JACKSON        CLOUDY    50  41  71 NW13G20   29.97S
TRACY          PTSUNNY   53  45  75 NW14G23   29.96S
SLAYTON        CLOUDY    52  42  67 NW20      29.97S
$$
MNZ065>067-074>077-082>085-091>093-220000-
   South Central Minnesota

CITY           SKY/WX    TMP DP  RH WIND       PRES   REMARKS
MANKATO        CLOUDY    47  40  76 W14       29.94R
NEW ULM        CLOUDY    48  39  71 W18       29.94S
ST JAMES       CLOUDY    48  43  81 W17       29.97R
FAIRMONT       CLOUDY    49  40  71 NW15      29.97R
GLENCOE        CLOUDY    47  43  88 W16G24    29.91S
FARIBAULT      CLOUDY    46  41  81 W14G23    29.92R
OWATONNA       CLOUDY    46  39  76 W20G26    29.92F
WASECA         CLOUDY    45  41  87 W14       29.94S
ALBERT LEA     CLOUDY    48  43  81 W13G21    29.94S
$$
MNZ078>079-086>088-094>096-220000-
   Southeast Minnesota

CITY           SKY/WX    TMP DP  RH WIND       PRES   REMARKS
ROCHESTER      CLOUDY    46  42  86 W17       29.91S
RED WING       CLOUDY    48  43  81 W15       29.87S
STANTON        CLOUDY    47  41  79 W12G25    29.89S
DODGE CENTER   CLOUDY    46  39  76 W18G24    29.91S
WINONA         CLOUDY    48  43  81 W10G16    29.90S
AUSTIN         CLOUDY    46  39  76 W16G25    29.93S
PRESTON        CLOUDY    46  40  79 W15       29.93R
$$
ABBREVIATIONS USED IN REMARKS
   TC - TEMPERATURES IN CELSIUS
  WCI - WIND CHILL INDEX
   HX - HEAT INDEX
  VSB - VISIBILITY
$$




USA.gov is the U.S. government's official web portal to all federal, state and local government web resources and services.